Location: Ecklingerode
(51.5036°N, 10.3122°E)
Time: 01:53:45
(UTC+00:00)

ATLAS 5 CENTAUR R/B - Pass Details

Date: 29 October 2020
Orbit: 531 x 1127 km, 63.4° (Epoch: 22 November)

Event Time Altitude Azimuth Distance (km) Brightness Sun altitude
Rises 18:09:38 0° 297° (WNW) 2,939 6.2 -21.2°
Reaches altitude 10° 18:12:16 10° 313° (NW) 2,119 5.0 -21.6°
Maximum altitude 18:16:01 22° 4° (N) 1,597 3.6 -22.2°
Enters shadow 18:17:30 19° 27° (NNE) 1,748 3.6 -22.4°
